Time,TemperatureF,DewpointF,PressureIn,WindDirection,WindDirectionDegrees,WindSpeedMPH,WindSpeedGustMPH,Humidity,HourlyPrecipIn,Conditions,Clouds,dailyrainin,SolarRadiationWatts/m^2,SoftwareType,DateUTC
2013-06-11 00:03:00,73.0,66.0,-100.00,North,3,0.0,21.0,79,0.00,,,0.40,0.000000,,2013-06-11 04:03:00,
2013-06-11 00:34:00,70.0,68.0,-100.00,East,95,0.0,4.0,93,0.02,,,0.42,0.000000,,2013-06-11 04:34:00,
2013-06-11 00:43:00,70.0,68.0,-100.00,East,95,0.0,4.0,93,0.02,,,0.42,0.000000,,2013-06-11 04:43:00,
2013-06-11 00:53:00,70.0,68.0,-100.00,East,95,0.0,4.0,93,0.02,,,0.42,0.000000,,2013-06-11 04:53:00,
2013-06-11 01:02:00,70.0,68.0,-100.00,East,95,0.0,4.0,93,0.02,,,0.42,0.000000,,2013-06-11 05:02:00,
2013-06-11 01:32:00,68.0,67.0,-100.00,South,181,0.0,0.0,96,0.00,,,0.42,0.000000,,2013-06-11 05:32:00,
2013-06-11 01:42:00,68.0,67.0,-100.00,South,181,0.0,0.0,96,0.00,,,0.42,0.000000,,2013-06-11 05:42:00,
2013-06-11 01:52:00,68.0,67.0,-100.00,South,181,0.0,0.0,96,0.00,,,0.42,0.000000,,2013-06-11 05:52:00,
2013-06-11 02:02:00,68.0,67.0,-100.00,South,181,0.0,0.0,96,0.00,,,0.42,0.000000,,2013-06-11 06:02:00,
2013-06-11 02:32:00,67.0,66.0,-100.00,SSE,155,0.0,0.0,97,0.00,,,0.42,0.000000,,2013-06-11 06:32:00,
2013-06-11 02:42:00,67.0,66.0,-100.00,SSE,155,0.0,0.0,97,0.00,,,0.42,0.000000,,2013-06-11 06:42:00,
2013-06-11 02:52:00,67.0,66.0,-100.00,SSE,155,0.0,0.0,97,0.00,,,0.42,0.000000,,2013-06-11 06:52:00,
2013-06-11 03:02:00,67.0,66.0,-100.00,SSE,155,0.0,0.0,97,0.00,,,0.42,0.000000,,2013-06-11 07:02:00,
2013-06-11 03:32:00,67.0,66.0,-100.00,ESE,112,0.0,0.0,97,0.00,,,0.42,0.000000,,2013-06-11 07:32:00,
2013-06-11 03:42:00,67.0,66.0,-100.00,ESE,112,0.0,0.0,97,0.00,,,0.42,0.000000,,2013-06-11 07:42:00,
2013-06-11 03:52:00,67.0,66.0,-100.00,ESE,112,0.0,0.0,97,0.00,,,0.42,0.000000,,2013-06-11 07:52:00,
2013-06-11 04:02:00,67.0,66.0,-100.00,ESE,112,0.0,0.0,97,0.00,,,0.42,0.000000,,2013-06-11 08:02:00,
2013-06-11 04:32:00,65.0,64.0,-100.00,SSE,154,0.0,0.0,97,0.01,,,0.43,0.000000,,2013-06-11 08:32:00,
2013-06-11 04:42:00,65.0,64.0,-100.00,SSE,154,0.0,0.0,97,0.01,,,0.43,0.000000,,2013-06-11 08:42:00,
2013-06-11 04:52:00,65.0,64.0,-100.00,SSE,154,0.0,0.0,97,0.01,,,0.43,0.000000,,2013-06-11 08:52:00,
2013-06-11 05:02:00,65.0,64.0,-100.00,SSE,154,0.0,0.0,97,0.01,,,0.43,0.000000,,2013-06-11 09:02:00,
2013-06-11 05:33:00,65.0,64.0,-100.00,SW,229,0.0,0.0,97,0.00,,,0.43,0.000000,,2013-06-11 09:33:00,
2013-06-11 05:43:00,65.0,64.0,-100.00,SW,229,0.0,0.0,97,0.00,,,0.43,0.000000,,2013-06-11 09:43:00,
2013-06-11 05:53:00,65.0,64.0,-100.00,SW,229,0.0,0.0,97,0.00,,,0.43,0.000000,,2013-06-11 09:53:00,
2013-06-11 06:03:00,65.0,64.0,-100.00,SW,229,0.0,0.0,97,0.00,,,0.43,0.000000,,2013-06-11 10:03:00,
2013-06-11 06:33:00,65.0,64.0,-100.00,WNW,302,0.0,0.0,98,0.00,,,0.43,0.000000,,2013-06-11 10:33:00,
2013-06-11 06:43:00,65.0,64.0,-100.00,WNW,302,0.0,0.0,98,0.00,,,0.43,0.000000,,2013-06-11 10:43:00,
2013-06-11 06:52:00,65.0,64.0,-100.00,WNW,302,0.0,0.0,98,0.00,,,0.43,0.000000,,2013-06-11 10:52:00,
2013-06-11 07:02:00,65.0,64.0,-100.00,WNW,302,0.0,0.0,98,0.00,,,0.43,0.000000,,2013-06-11 11:02:00,
2013-06-11 07:32:00,65.0,64.0,-100.00,NW,315,0.0,0.0,98,0.00,,,-99.99,13.000000,,2013-06-11 11:32:00,
2013-06-11 07:42:00,65.0,64.0,-100.00,NW,315,0.0,0.0,98,0.00,,,-99.99,13.000000,,2013-06-11 11:42:00,
2013-06-11 07:52:00,65.0,64.0,-100.00,NW,315,0.0,0.0,98,0.00,,,-99.99,13.000000,,2013-06-11 11:52:00,
2013-06-11 08:02:00,65.0,64.0,-100.00,NW,315,0.0,0.0,98,0.00,,,-99.99,13.000000,,2013-06-11 12:02:00,
2013-06-11 08:32:00,69.0,68.0,-100.00,South,186,0.0,0.0,97,0.00,,,-99.99,101.000000,,2013-06-11 12:32:00,
2013-06-11 08:42:00,69.0,68.0,-100.00,South,186,0.0,0.0,97,0.00,,,-99.99,101.000000,,2013-06-11 12:42:00,
2013-06-11 08:52:00,69.0,68.0,-100.00,South,186,0.0,0.0,97,0.00,,,-99.99,101.000000,,2013-06-11 12:52:00,
2013-06-11 09:02:00,69.0,68.0,-100.00,South,186,0.0,0.0,97,0.00,,,-99.99,101.000000,,2013-06-11 13:02:00,
2013-06-11 09:32:00,72.0,70.0,-100.00,SW,225,0.0,0.0,92,0.00,,,-99.99,173.000000,,2013-06-11 13:32:00,
2013-06-11 09:42:00,72.0,70.0,-100.00,SW,225,0.0,0.0,92,0.00,,,-99.99,173.000000,,2013-06-11 13:42:00,
2013-06-11 09:52:00,72.0,70.0,-100.00,SW,225,0.0,0.0,92,0.00,,,-99.99,173.000000,,2013-06-11 13:52:00,
2013-06-11 10:02:00,72.0,70.0,-100.00,SW,225,0.0,0.0,92,0.00,,,-99.99,173.000000,,2013-06-11 14:02:00,
2013-06-11 10:32:00,77.0,71.0,-100.00,South,183,0.0,0.0,82,0.00,,,0.03,336.000000,,2013-06-11 14:32:00,
2013-06-11 10:42:00,77.0,71.0,-100.00,South,183,0.0,0.0,82,0.00,,,0.03,336.000000,,2013-06-11 14:42:00,
2013-06-11 10:53:00,77.0,71.0,-100.00,South,183,0.0,0.0,82,0.00,,,0.03,336.000000,,2013-06-11 14:53:00,
2013-06-11 11:02:00,77.0,71.0,-100.00,South,183,0.0,0.0,82,0.00,,,0.03,336.000000,,2013-06-11 15:02:00,
2013-06-11 11:33:00,81.0,71.0,-100.00,NW,316,3.0,6.0,72,0.00,,,0.03,596.000000,,2013-06-11 15:33:00,
2013-06-11 11:43:00,81.0,71.0,-100.00,NW,316,3.0,6.0,72,0.00,,,0.03,596.000000,,2013-06-11 15:43:00,
2013-06-11 11:53:00,81.0,71.0,-100.00,NW,316,3.0,6.0,72,0.00,,,0.03,596.000000,,2013-06-11 15:53:00,
2013-06-11 12:03:00,81.0,71.0,-100.00,NW,316,3.0,6.0,72,0.00,,,0.03,596.000000,,2013-06-11 16:03:00,
2013-06-11 12:33:00,84.0,71.0,-100.00,WSW,249,3.0,9.0,66,0.00,,,0.03,798.000000,,2013-06-11 16:33:00,
2013-06-11 12:42:00,84.0,71.0,-100.00,WSW,249,3.0,9.0,66,0.00,,,0.03,798.000000,,2013-06-11 16:42:00,
2013-06-11 12:53:00,84.0,71.0,-100.00,WSW,249,3.0,9.0,66,0.00,,,0.03,798.000000,,2013-06-11 16:53:00,
2013-06-11 13:02:00,84.0,71.0,-100.00,WSW,249,3.0,9.0,66,0.00,,,0.03,798.000000,,2013-06-11 17:02:00,
2013-06-11 13:32:00,86.0,69.0,-100.00,West,263,2.0,10.0,58,0.00,,,0.03,809.000000,,2013-06-11 17:32:00,
2013-06-11 13:43:00,86.0,69.0,-100.00,West,263,2.0,10.0,58,0.00,,,0.03,809.000000,,2013-06-11 17:43:00,
2013-06-11 13:53:00,86.0,69.0,-100.00,West,263,2.0,10.0,58,0.00,,,0.03,809.000000,,2013-06-11 17:53:00,
2013-06-11 14:02:00,86.0,69.0,-100.00,West,263,2.0,10.0,58,0.00,,,0.03,809.000000,,2013-06-11 18:02:00,
2013-06-11 14:33:00,87.0,70.0,-100.00,WSW,241,5.0,9.0,58,0.00,,,0.03,790.000000,,2013-06-11 18:33:00,
2013-06-11 14:43:00,87.0,70.0,-100.00,WSW,241,5.0,9.0,58,0.00,,,0.03,790.000000,,2013-06-11 18:43:00,
2013-06-11 14:52:00,87.0,70.0,-100.00,WSW,241,5.0,9.0,58,0.00,,,0.03,790.000000,,2013-06-11 18:52:00,
2013-06-11 15:03:00,87.0,70.0,-100.00,WSW,241,5.0,9.0,58,0.00,,,0.03,790.000000,,2013-06-11 19:03:00,
2013-06-11 15:33:00,89.0,69.0,-100.00,West,266,4.0,10.0,52,0.00,,,0.03,799.000000,,2013-06-11 19:33:00,
2013-06-11 15:42:00,89.0,69.0,-100.00,West,266,4.0,10.0,52,0.00,,,0.03,799.000000,,2013-06-11 19:42:00,
2013-06-11 15:53:00,89.0,69.0,-100.00,West,266,4.0,10.0,52,0.00,,,0.03,799.000000,,2013-06-11 19:53:00,
2013-06-11 16:03:00,89.0,69.0,-100.00,West,266,4.0,10.0,52,0.00,,,0.03,799.000000,,2013-06-11 20:03:00,
2013-06-11 16:32:00,89.0,65.0,-100.00,WNW,286,3.0,12.0,45,0.00,,,0.03,718.000000,,2013-06-11 20:32:00,
2013-06-11 16:42:00,89.0,65.0,-100.00,WNW,286,3.0,12.0,45,0.00,,,0.03,718.000000,,2013-06-11 20:42:00,
2013-06-11 16:52:00,89.0,65.0,-100.00,WNW,286,3.0,12.0,45,0.00,,,0.03,718.000000,,2013-06-11 20:52:00,
2013-06-11 17:02:00,89.0,65.0,-100.00,WNW,286,3.0,12.0,45,0.00,,,0.03,718.000000,,2013-06-11 21:02:00,
2013-06-11 17:33:00,92.0,64.0,-100.00,NNW,327,5.0,10.0,40,0.00,,,0.03,653.000000,,2013-06-11 21:33:00,
2013-06-11 17:42:00,92.0,64.0,-100.00,NNW,327,5.0,10.0,40,0.00,,,0.03,653.000000,,2013-06-11 21:42:00,
2013-06-11 17:53:00,92.0,64.0,-100.00,NNW,327,5.0,10.0,40,0.00,,,0.03,653.000000,,2013-06-11 21:53:00,
2013-06-11 18:03:00,92.0,64.0,-100.00,NNW,327,5.0,10.0,40,0.00,,,0.03,653.000000,,2013-06-11 22:03:00,
2013-06-11 18:33:00,91.0,65.0,-100.00,WNW,300,3.0,10.0,43,0.00,,,0.03,540.000000,,2013-06-11 22:33:00,
2013-06-11 18:42:00,91.0,65.0,-100.00,WNW,300,3.0,10.0,43,0.00,,,0.03,540.000000,,2013-06-11 22:42:00,
2013-06-11 18:52:00,91.0,65.0,-100.00,WNW,300,3.0,10.0,43,0.00,,,0.03,540.000000,,2013-06-11 22:52:00,
2013-06-11 19:02:00,91.0,65.0,-100.00,WNW,300,3.0,10.0,43,0.00,,,0.03,540.000000,,2013-06-11 23:02:00,
2013-06-11 19:32:00,90.0,66.0,-100.00,West,262,0.0,6.0,46,0.00,,,0.03,283.000000,,2013-06-11 23:32:00,
2013-06-11 19:42:00,90.0,66.0,-100.00,West,262,0.0,6.0,46,0.00,,,0.03,283.000000,,2013-06-11 23:42:00,
2013-06-11 19:52:00,90.0,66.0,-100.00,West,262,0.0,6.0,46,0.00,,,0.03,283.000000,,2013-06-11 23:52:00,
2013-06-11 20:02:00,90.0,66.0,-100.00,West,262,0.0,6.0,46,0.00,,,0.03,283.000000,,2013-06-12 00:02:00,
2013-06-11 20:32:00,84.0,74.0,-100.00,South,188,0.0,0.0,72,0.00,,,0.03,137.000000,,2013-06-12 00:32:00,
2013-06-11 20:42:00,84.0,74.0,-100.00,South,188,0.0,0.0,72,0.00,,,0.03,137.000000,,2013-06-12 00:42:00,
2013-06-11 20:52:00,84.0,74.0,-100.00,South,188,0.0,0.0,72,0.00,,,0.03,137.000000,,2013-06-12 00:52:00,
2013-06-11 21:02:00,84.0,74.0,-100.00,South,188,0.0,0.0,72,0.00,,,0.03,137.000000,,2013-06-12 01:02:00,
2013-06-11 21:32:00,76.0,73.0,-100.00,SSE,157,0.0,0.0,91,0.00,,,0.03,16.000000,,2013-06-12 01:32:00,
2013-06-11 21:42:00,76.0,73.0,-100.00,SSE,157,0.0,0.0,91,0.00,,,0.03,16.000000,,2013-06-12 01:42:00,
2013-06-11 21:52:00,76.0,73.0,-100.00,SSE,157,0.0,0.0,91,0.00,,,0.03,16.000000,,2013-06-12 01:52:00,
2013-06-11 22:02:00,76.0,73.0,-100.00,SSE,157,0.0,0.0,91,0.00,,,0.03,16.000000,,2013-06-12 02:02:00,
2013-06-11 22:32:00,73.0,71.0,-100.00,East,92,0.0,0.0,94,0.00,,,0.03,0.000000,,2013-06-12 02:32:00,
2013-06-11 22:42:00,73.0,71.0,-100.00,East,92,0.0,0.0,94,0.00,,,0.03,0.000000,,2013-06-12 02:42:00,
2013-06-11 22:52:00,73.0,71.0,-100.00,East,92,0.0,0.0,94,0.00,,,0.03,0.000000,,2013-06-12 02:52:00,
2013-06-11 23:02:00,73.0,71.0,-100.00,East,92,0.0,0.0,94,0.00,,,0.03,0.000000,,2013-06-12 03:02:00,
2013-06-11 23:33:00,72.0,70.0,-100.00,SE,141,0.0,0.0,95,0.00,,,0.03,0.000000,,2013-06-12 03:33:00,
2013-06-11 23:43:00,72.0,70.0,-100.00,SE,141,0.0,0.0,95,0.00,,,0.03,0.000000,,2013-06-12 03:43:00,
2013-06-11 23:53:00,72.0,70.0,-100.00,SE,141,0.0,0.0,95,0.00,,,0.03,0.000000,,2013-06-12 03:53:00,